• In Germany
  • List of Countries
  • For 7 days
  • Water Temperature
  • Satellite Maps
  • Weather Map
  • Weather Widgets
  • user-avatar
    Login

    Hourly Weather Innsbruck

    Today, 19 June, Tuesday

    Time Temperature Precipitation Wind Pressure Humidity
    00:00 +6°C° 0 mm 1 mps 600 mmHg 94%
    01:00 +5°C° 0 mm 1 mps 600 mmHg 95%
    02:00 +5°C° 0 mm 1 mps 600 mmHg 95%
    03:00 +5°C° 0 mm 1 mps 600 mmHg 94%
    04:00 +5°C° 0 mm 1 mps 600 mmHg 94%
    05:00 +6°C° 0 mm 1 mps 601 mmHg 89%
    06:00 +8°C° 0 mm 1 mps 602 mmHg 84%
    07:00 +10°C° 0 mm 1 mps 603 mmHg 79%
    08:00 +12°C° 0 mm 2 mps 603 mmHg 71%
    09:00 +13°C° 0 mm 2 mps 604 mmHg 63%
    10:00 +15°C° 0 mm 2 mps 605 mmHg 55%
    11:00 +16°C° 0 mm 2 mps 605 mmHg 54%
    12:00 +17°C° 0 mm 2 mps 605 mmHg 52%
    13:00 +18°C° 0 mm 3 mps 605 mmHg 50%
    14:00 +18°C° 0 mm 3 mps 605 mmHg 51%
    15:00 +18°C° 0 mm 3 mps 605 mmHg 51%
    16:00 +18°C° 0 mm 3 mps 605 mmHg 52%
    17:00 +16°C° 0 mm 3 mps 605 mmHg 60%
    18:00 +15°C° 0 mm 2 mps 604 mmHg 67%
    19:00 +14°C° 0 mm 2 mps 604 mmHg 75%
    20:00 +12°C° 0 mm 2 mps 603 mmHg 82%
    21:00 +10°C° 0 mm 1 mps 602 mmHg 88%
    22:00 +8°C° 0 mm 1 mps 602 mmHg 95%
    23:00 +8°C° 0 mm 1 mps 602 mmHg 95%

    Tomorrow, 20 June, Wednesday

    Time Temperature Precipitation Wind Pressure Humidity
    00:00 +7°C° 0 mm 1 mps 601 mmHg 94%
    01:00 +6°C° 0 mm 1 mps 601 mmHg 94%
    02:00 +6°C° 0 mm 1 mps 601 mmHg 92%
    03:00 +6°C° 0 mm 1 mps 601 mmHg 91%
    04:00 +6°C° 0 mm 1 mps 600 mmHg 89%
    05:00 +8°C° 0 mm 1 mps 601 mmHg 80%
    06:00 +9°C° 0 mm 0 mps 602 mmHg 72%
    07:00 +12°C° 0 mm 0 mps 603 mmHg 64%
    08:00 +13°C° 0 mm 0 mps 604 mmHg 58%
    09:00 +16°C° 0 mm 1 mps 605 mmHg 52%
    10:00 +19°C° 0 mm 1 mps 605 mmHg 46%
    11:00 +20°C° 0 mm 1 mps 605 mmHg 45%
    12:00 +20°C° 0 mm 1 mps 605 mmHg 44%
    13:00 +20°C° 0 mm 2 mps 605 mmHg 43%
    14:00 +20°C° 0.1 mm 2 mps 605 mmHg 47%
    15:00 +19°C° 0.1 mm 2 mps 605 mmHg 52%
    16:00 +19°C° 0.1 mm 2 mps 604 mmHg 56%
    17:00 +18°C° 0.6 mm 2 mps 604 mmHg 63%
    18:00 +16°C° 0.6 mm 1 mps 603 mmHg 71%
    19:00 +15°C° 0.6 mm 1 mps 603 mmHg 79%
    20:00 +14°C° 0.5 mm 1 mps 602 mmHg 84%
    21:00 +12°C° 0.5 mm 1 mps 602 mmHg 89%
    22:00 +10°C° 0.5 mm 1 mps 601 mmHg 94%
    23:00 +10°C° 0.1 mm 1 mps 601 mmHg 94%

    Day after tomorrow, 21 June, Thursday

    Time Temperature Precipitation Wind Pressure Humidity
    00:00 +10°C° 0.1 mm 1 mps 601 mmHg 94%
    01:00 +9°C° 0.1 mm 1 mps 600 mmHg 93%
    02:00 +9°C° 0 mm 1 mps 600 mmHg 93%
    03:00 +9°C° 0 mm 1 mps 600 mmHg 93%
    04:00 +8°C° 0 mm 1 mps 599 mmHg 93%
    05:00 +10°C° 0 mm 1 mps 600 mmHg 88%
    06:00 +12°C° 0 mm 1 mps 600 mmHg 83%
    07:00 +14°C° 0 mm 1 mps 601 mmHg 78%
    08:00 +15°C° 0.1 mm 1 mps 601 mmHg 71%
    09:00 +18°C° 0.1 mm 1 mps 602 mmHg 64%
    10:00 +20°C° 0.1 mm 1 mps 602 mmHg 57%
    11:00 +20°C° 0.9 mm 1 mps 602 mmHg 57%
    12:00 +19°C° 0.9 mm 2 mps 602 mmHg 58%
    13:00 +19°C° 0.9 mm 2 mps 602 mmHg 58%
    14:00 +18°C° 1.4 mm 2 mps 601 mmHg 63%
    15:00 +18°C° 1.4 mm 2 mps 601 mmHg 68%
    16:00 +17°C° 1.4 mm 3 mps 600 mmHg 73%
    17:00 +16°C° 1.3 mm 2 mps 600 mmHg 79%
    18:00 +14°C° 1.3 mm 2 mps 599 mmHg 85%
    19:00 +13°C° 1.3 mm 2 mps 599 mmHg 91%
    20:00 +12°C° 0.7 mm 2 mps 599 mmHg 93%
    21:00 +10°C° 0.7 mm 2 mps 599 mmHg 94%
    22:00 +9°C° 0.7 mm 2 mps 599 mmHg 96%
    23:00 +9°C° 0.2 mm 2 mps 598 mmHg 97%

    22 June, Friday

    Time Temperature Precipitation Wind Pressure Humidity
    00:00 +8°C° 0.2 mm 2 mps 598 mmHg 97%
    01:00 +8°C° 0.2 mm 2 mps 598 mmHg 97%
    02:00 +8°C° 0.1 mm 2 mps 598 mmHg 97%
    03:00 +7°C° 0.1 mm 2 mps 597 mmHg 97%
    04:00 +7°C° 0.1 mm 2 mps 597 mmHg 97%
    05:00 +6°C° 0.1 mm 2 mps 597 mmHg 96%
    06:00 +6°C° 0.1 mm 2 mps 597 mmHg 95%
    07:00 +6°C° 0.1 mm 2 mps 597 mmHg 94%
    08:00 +6°C° 0.1 mm 2 mps 597 mmHg 91%
    09:00 +6°C° 0.1 mm 2 mps 597 mmHg 89%
    10:00 +6°C° 0.1 mm 2 mps 597 mmHg 87%
    11:00 +7°C° 0 mm 3 mps 598 mmHg 81%
    12:00 +7°C° 0 mm 3 mps 598 mmHg 76%
    13:00 +8°C° 0 mm 3 mps 598 mmHg 71%
    14:00 +8°C° 0 mm 3 mps 598 mmHg 70%
    15:00 +8°C° 0 mm 3 mps 598 mmHg 68%
    16:00 +8°C° 0 mm 3 mps 598 mmHg 67%
    17:00 +7°C° 0 mm 3 mps 598 mmHg 69%
    18:00 +5°C° 0 mm 3 mps 598 mmHg 72%
    19:00 +4°C° 0 mm 3 mps 598 mmHg 75%
    20:00 +4°C° 0 mm 2 mps 598 mmHg 79%
    21:00 +3°C° 0 mm 2 mps 598 mmHg 84%
    22:00 +2°C° 0 mm 2 mps 598 mmHg 88%
    23:00 +2°C° 0 mm 2 mps 598 mmHg 89%

    23 June, Saturday

    Time Temperature Precipitation Wind Pressure Humidity
    00:00 +2°C° 0 mm 1 mps 598 mmHg 90%
    01:00 +2°C° 0 mm 1 mps 598 mmHg 91%
    02:00 +1°C° 0 mm 1 mps 597 mmHg 92%
    03:00 +1°C° 0 mm 1 mps 597 mmHg 92%
    04:00 +1°C° 0 mm 1 mps 597 mmHg 93%
    05:00 +2°C° 0 mm 1 mps 598 mmHg 86%
    06:00 +3°C° 0 mm 1 mps 598 mmHg 80%
    07:00 +5°C° 0 mm 1 mps 599 mmHg 73%
    08:00 +6°C° 0 mm 2 mps 599 mmHg 63%
    09:00 +7°C° 0 mm 2 mps 600 mmHg 54%
    10:00 +9°C° 0 mm 2 mps 601 mmHg 45%
    11:00 +10°C° 0 mm 2 mps 601 mmHg 42%
    12:00 +11°C° 0 mm 3 mps 601 mmHg 39%
    13:00 +12°C° 0 mm 3 mps 601 mmHg 37%
    14:00 +12°C° 0 mm 3 mps 601 mmHg 39%
    15:00 +12°C° 0 mm 3 mps 601 mmHg 42%
    16:00 +11°C° 0 mm 3 mps 601 mmHg 45%
    17:00 +10°C° 0 mm 3 mps 600 mmHg 54%
    18:00 +9°C° 0 mm 3 mps 600 mmHg 63%
    19:00 +7°C° 0 mm 2 mps 599 mmHg 72%
    20:00 +6°C° 0 mm 2 mps 599 mmHg 79%
    21:00 +5°C° 0 mm 1 mps 599 mmHg 87%
    22:00 +4°C° 0 mm 1 mps 599 mmHg 95%
    23:00 +3°C° 0 mm 1 mps 598 mmHg 95%

    24 June, Sunday

    Time Temperature Precipitation Wind Pressure Humidity
    00:00 +3°C° 0 mm 1 mps 598 mmHg 95%
    01:00 +2°C° 0 mm 1 mps 598 mmHg 95%
    02:00 +1°C° 0 mm 0 mps 598 mmHg 95%
    03:00 0°C° 0 mm 0 mps 597 mmHg 94%
    04:00 -1°C° 0 mm 0 mps 597 mmHg 93%
    05:00 +1°C° 0 mm 0 mps 597 mmHg 85%
    06:00 +3°C° 0 mm 0 mps 598 mmHg 76%
    07:00 +6°C° 0 mm 0 mps 599 mmHg 68%
    08:00 +8°C° 0 mm 1 mps 600 mmHg 58%
    09:00 +10°C° 0 mm 1 mps 601 mmHg 49%
    10:00 +12°C° 0 mm 1 mps 601 mmHg 40%
    11:00 +13°C° 0 mm 2 mps 601 mmHg 38%
    12:00 +13°C° 0 mm 2 mps 601 mmHg 36%
    13:00 +14°C° 0 mm 2 mps 602 mmHg 35%
    14:00 +14°C° 0 mm 2 mps 601 mmHg 38%
    15:00 +13°C° 0 mm 3 mps 601 mmHg 40%
    16:00 +12°C° 0 mm 3 mps 601 mmHg 43%
    17:00 +12°C° 0.1 mm 2 mps 600 mmHg 51%
    18:00 +10°C° 0.1 mm 2 mps 600 mmHg 58%
    19:00 +9°C° 0.1 mm 2 mps 600 mmHg 66%
    20:00 +7°C° 0 mm 2 mps 599 mmHg 75%
    21:00 +5°C° 0 mm 1 mps 598 mmHg 84%
    22:00 +3°C° 0 mm 1 mps 597 mmHg 93%
    23:00 +3°C° 0 mm 1 mps 597 mmHg 93%
    Show more